Content
SEND FEEDBACK

Daily
Averages
Monthly
Summary
Canada

VANCOUVER, BRITISH COLUMBIA


Home > North America > Canada > British Columbia
Elevation: 7 feet     Latitude: 49 11N     Longitude: 123 10W

WEATHER
 
SELECT A DAY
Number of Records: 249,280;   Date Range: 5/15/97 - 7/27/14
 
SHARE

PRINT THIS DATA

[ ← Previous Day ]
WEATHER ALMANAC - SEPTEMBER 26, 2013
[ Next Day → ]
[ °C ]   °F
Weather ElementAverageHighLow
Temperature53.2 °F59 °F (5:35 pm)46.4 °F (7:35 am)
Dewpoint48 °F50 °F (12:35 pm)46.4 °F (12:35 am)
Humidity83.4 %100 % (6:55 am)72 % (11:15 am)
Barometer30.07 in30.12 in (11:35 am)30.01 in (12:35 am)
Wind Speed3.9 mph13.8 mph (10:15 pm)
Wind Gust16.1 mph (10:55 pm)
Weather ElementAverage
Visibility9.7 mi
Wind DirectionSE (136.6 °)

Weather ElementTotal
Precipitation---
Heating Degree Days12.3 (Base 65)
Growing Degree Days2.7 (Base 50)
Averaged from 71 records on September 26, 2013
WEATHER CONDITIONS BREAKOUT
WIND DIRECTION BREAKOUT
WEATHER BY HOUR - SEPTEMBER 26, 2013
[ °C ]   °F
Local TimeTemperatureDewpointHumidityBarometerVisibilityWind DirectionWind SpeedGust SpeedPrecipitationEventsConditions
12:35 AM50.0 °F46.4 °F87 %30.01 in10.0 miSouth (170°)3.5 mphRainLight Rain
12:55 AM50.0 °F48.2 °F94 %30.01 in10.0 miCalmRainLight Rain
1:15 AM50.0 °F48.2 °F94 %30.01 in10.0 miSouth (170°)3.5 mphRainLight Rain
1:35 AM50.0 °F48.2 °F94 %30.01 in10.0 miSouth (190°)6.9 mphRainLight Rain
1:55 AM50.0 °F48.2 °F94 %30.01 in10.0 miSouth (180°)3.5 mphRainLight Rain
2:15 AM50.0 °F48.2 °F94 %30.01 in10.0 miSouth (190°)5.8 mphRainLight Rain
2:35 AM50.0 °F48.2 °F94 %30.01 in10.0 miNorthClear
2:55 AM50.0 °F48.2 °F94 %30.01 in10.0 miSouth (170°)3.5 mphMostly Cloudy
3:15 AM50.0 °F48.2 °F94 %30.02 in10.0 miSouth (190°)4.6 mphOvercast
3:35 AM51.8 °F48.2 °F88 %30.02 in10.0 miSouth (190°)6.9 mphOvercast
3:55 AM51.8 °F48.2 °F88 %30.03 in10.0 miSouth (190°)4.6 mphOvercast
4:15 AM51.8 °F48.2 °F88 %30.03 in10.0 miSouth (180°)3.5 mphOvercast
4:35 AM51.8 °F48.2 °F88 %30.04 in10.0 miSouth (190°)3.5 mphOvercast
4:55 AM50.0 °F48.2 °F94 %30.04 in10.0 miCalmOvercast
5:15 AM50.0 °F48.2 °F94 %30.04 in10.0 miCalmMostly Cloudy
5:35 AM50.0 °F48.2 °F94 %30.05 in10.0 miCalmOvercast
5:55 AM50.0 °F48.2 °F94 %30.05 in10.0 miCalmOvercast
6:15 AM50.0 °F48.2 °F94 %30.05 in10.0 miCalmOvercast
6:35 AM50.0 °F48.2 °F94 %30.05 in10.0 miCalmOvercast
6:55 AM48.2 °F48.2 °F100 %30.06 in10.0 miCalmMostly Cloudy
7:15 AM48.2 °F46.4 °F93 %30.06 in10.0 miCalmScattered Clouds
7:35 AM46.4 °F46.4 °F100 %30.07 in10.0 miCalmPartly Cloudy
7:55 AM48.2 °F48.2 °F100 %30.07 in10.0 miCalmPartly Cloudy
8:15 AM50.0 °F48.2 °F94 %30.07 in10.0 miCalmClear
8:35 AM50.0 °F48.2 °F94 %30.09 in10.0 miCalmClear
8:55 AM50.0 °F48.2 °F94 %30.09 in7.0 miCalmClear
9:15 AM51.8 °F48.2 °F88 %30.09 in8.0 miNE (40°)3.5 mphClear
9:35 AM51.8 °F48.2 °F88 %30.09 in10.0 miCalmClear
9:55 AM53.6 °F48.2 °F82 %30.10 in7.0 miCalmClear
10:15 AM53.6 °F48.2 °F82 %30.10 in9.0 miENE (70°)3.5 mphClear
10:35 AM53.6 °F46.4 °F77 %30.10 in9.0 miCalmClear
10:55 AM53.6 °F46.4 °F77 %30.11 in10.0 miCalmClear
11:15 AM55.4 °F46.4 °F72 %30.11 in7.0 miNorth (10°)3.5 mphClear
11:35 AM55.4 °F46.4 °F72 %30.12 in7.0 miNorth (350°)4.6 mphPartly Cloudy
11:55 AM53.6 °F48.2 °F82 %30.11 in9.0 miCalmClear
12:15 PM55.4 °F48.2 °F77 %30.11 in9.0 miNorth (350°)3.5 mphPartly Cloudy
12:35 PM55.4 °F50.0 °F82 %30.10 in7.0 miCalmClear
12:55 PM55.4 °F50.0 °F82 %30.10 in10.0 miNorth (350°)4.6 mphClear
1:15 PM55.4 °F48.2 °F77 %30.10 in10.0 miNNW (330°)5.8 mphClear
1:35 PM55.4 °F50.0 °F82 %30.10 in10.0 miNNW (340°)4.6 mphClear
1:55 PM55.4 °F50.0 °F82 %30.11 in10.0 miNorth (350°)6.9 mphClear
2:15 PM55.4 °F50.0 °F82 %30.10 in10.0 miNorth (350°)5.8 mphClear
2:35 PM55.4 °F48.2 °F77 %30.10 in10.0 miCalmClear
2:55 PM57.2 °F48.2 °F72 %30.09 in10.0 miNorth (350°)3.5 mphClear
3:15 PM57.2 °F48.2 °F72 %30.08 in10.0 miCalmClear
3:35 PM57.2 °F48.2 °F72 %30.08 in10.0 miNorth (360°)4.6 mphClear
3:55 PM57.2 °F48.2 °F72 %30.08 in10.0 miNorth (350°)3.5 mphClear
4:15 PM57.2 °F48.2 °F72 %30.08 in10.0 miNorth (350°)3.5 mphClear
4:35 PM57.2 °F48.2 °F72 %30.08 in10.0 miCalmClear
4:55 PM57.2 °F48.2 °F72 %30.07 in10.0 miCalmClear
5:15 PM57.2 °F48.2 °F72 %30.08 in10.0 miCalmClear
5:35 PM59.0 °F50.0 °F72 %30.08 in10.0 miSSW (200°)6.9 mphClear
5:55 PM59.0 °F50.0 °F72 %30.07 in10.0 miSSW (200°)6.9 mphClear
6:15 PM59.0 °F50.0 °F72 %30.07 in10.0 miSouth (190°)5.8 mphClear
6:35 PM57.2 °F50.0 °F77 %30.07 in10.0 miSouth (190°)6.9 mphClear
6:55 PM55.4 °F48.2 °F77 %30.08 in10.0 miSouth (190°)6.9 mphClear
7:15 PM55.4 °F48.2 °F77 %30.08 in10.0 miSouth (180°)6.9 mphClear
7:35 PM53.6 °F48.2 °F82 %30.08 in10.0 miSouth (180°)5.8 mphClear
7:55 PM53.6 °F48.2 °F82 %30.09 in10.0 miSouth (190°)9.2 mphClear
8:15 PM53.6 °F46.4 °F77 %30.08 in10.0 miSouth (180°)8.1 mphClear
8:35 PM53.6 °F46.4 °F77 %30.09 in10.0 miSouth (170°)4.6 mphClear
8:55 PM53.6 °F48.2 °F82 %30.09 in10.0 miSouth (180°)6.9 mphClear
9:15 PM53.6 °F46.4 °F77 %30.09 in10.0 miSouth (180°)8.1 mphClear
9:35 PM53.6 °F46.4 °F77 %30.09 in10.0 miSouth (190°)6.9 mphClear
9:55 PM53.6 °F46.4 °F77 %30.09 in10.0 miSSW (200°)12.7 mphClear
10:15 PM53.6 °F46.4 °F77 %30.09 in10.0 miSSW (200°)13.8 mphClear
10:35 PM53.6 °F46.4 °F77 %30.08 in10.0 miSouth (190°)11.5 mphClear
10:55 PM53.6 °F46.4 °F77 %30.08 in10.0 miSouth (190°)11.5 mph16.1 mphClear
11:15 PM53.6 °F46.4 °F77 %30.08 in10.0 miSouth (180°)9.2 mphClear
11:35 PM53.6 °F48.2 °F82 %30.08 in10.0 miSouth (180°)8.1 mphClear
11:55 PM51.8 °F48.2 °F88 %30.08 in10.0 miSouth (180°)6.9 mphClear
Hourly data recorded from CZBB, located miles away from Vancouver, British Columbia







STORIES FROM OUR PARTNERS